Regional Weather Roundup
Issued by NWS

Home | Current Version | Previous Version | Graphics & Text | Print | Product List | Glossary On
Versions: 1 2 3 4 5 6 7 8 9 10 11 12 13 14 15 16 17 18 19 20 21 22 23 24 25 26 27 28 29 30 31 32 33 34 35 36 37 38 39 40 41 42 43 44 45 46 47 48 49 50
000
ASUS45 KTFX 250110
RWRMT
MONTANA REGIONAL WEATHER ROUNDUP
NATIONAL WEATHER SERVICE GREAT FALLS MT
700 PM MDT SUN MAY 24 2015

NOTE: "FAIR" INDICATES FEW OR NO CLOUDS BELOW 12000 FEET WITH NO
SIGNIFICANT WEATHER AND/OR OBSTRUCTIONS TO VISIBILITY.

MTZ001>007-043-250200-
WEST OF THE DIVIDE

CITY           SKY/WX    TMP DP  RH WIND       PRES   REMARKS
KALISPELL      PTCLDY    73  33  23 SE6       29.89F
MISSOULA       SUNNY     69  35  28 SE14      29.92F
BUTTE          LGT RAIN  56  36  47 W6        29.99F
MULLAN PASS    CLOUDY    50  40  68 VRB3      30.01S
DEER LODGE       N/A     57  39  51 N7        30.02F
EUREKA           N/A     73  34  23 E10G18    29.85F
HAMILTON         N/A     68  36  30 NW10      29.91F
LIBBY            N/A     75  34  22 SE5       29.84F
RONAN            N/A     70  41  34 E6        29.96F
THOMPSON FALLS   N/A     72  43  35 E3        29.91F
$$

MTZ008-052>055-250200-
SOUTHWEST MONTANA

CITY           SKY/WX    TMP DP  RH WIND       PRES   REMARKS
BOZEMAN        CLOUDY    53  47  79 CALM      29.98F
DILLON         SUNNY     58  36  43 NE21      29.94F
W YELLOWSTONE  PTSUNNY   50  39  66 N5        29.96S
THREE FORKS      N/A     57  57 100 NE6       29.98F
TWIN BRIDGES     N/A     61  36  39 N14       29.95F
$$

MTZ009-010-012-014-046-048-049-054-250200-
EAST SLOPES AND CENTRAL MONTANA

CITY           SKY/WX    TMP DP  RH WIND       PRES   REMARKS
CUT BANK       MOSUNNY   63  36  36 SE8       29.99F
GREAT FALLS    SUNNY     62  41  46 E8        29.97F
MALMSTROM AFB  SUNNY     62  44  51 SE6       29.98F
HELENA         CLOUDY    58  47  66 NE13      29.98R
CONRAD           N/A     64  43  46 E7        30.02F
$$

MTZ011-013-016-021-045-047-050-051-250200-
NORTH CENTRAL MONTANA

CITY           SKY/WX    TMP DP  RH WIND       PRES   REMARKS
HAVRE          PTSUNNY   66  43  43 SE18G26   29.96S
LEWISTOWN      PTSUNNY   60  47  61 VRB3      29.99F
N BAR RANCH    FAIR      57  45  62 N6        30.01F
CHINOOK          N/A     66  43  42 CALM      29.95F
FORT BENTON      N/A     66  43  42 E6        29.97F
$$

MTZ017>020-022>027-061-062-250200-
NORTHEAST MONTANA

CITY           SKY/WX    TMP DP  RH WIND       PRES   REMARKS
GLASGOW        PTSUNNY   72  40  31 SE15      29.91S
JORDAN           N/A     67  45  45 SE8       29.92F
SIDNEY         PTSUNNY   64  54  68 CALM      29.92S
WOLF POINT     PTSUNNY   73  45  36 VRB3      29.90F
MALTA            N/A     73  41  31 CALM      29.90F
POPLAR           N/A     72  43  35 SE3       29.91S
SCOBEY           N/A     73  34  24 E9        29.92F
$$

MTZ028>42-056>058-250200-
SOUTHCENTRAL AND SOUTHEAST MONTANA

CITY           SKY/WX    TMP DP  RH WIND       PRES   REMARKS
BAKER          CLOUDY    58  53  84 CALM      29.94F
BILLINGS       CLOUDY    61  44  53 NE6       29.95F
LIVINGSTON     CLOUDY    55  44  66 E13       29.98S
MILES CITY     CLOUDY    64  47  53 E8        29.92F
BIG TIMBER       N/A     54  46  76 E10       30.00S
EKALAKA          N/A     52  49  89 NE3       29.93F
FORSYTH          N/A     63  52  67 SE7       29.92S
LAUREL           N/A     58  46  64 NW7       29.95F
ROUNDUP          N/A     61  44  53 N2        29.89F
$$

REGIONAL REPORTS...DAKOTAS

CITY           SKY/WX    TMP DP  RH WIND       PRES   REMARKS
WILLISTON      MOSUNNY   73  38  27 E10       29.90F
MINOT          PTSUNNY   70  42  36 E12       29.90F
DICKINSON      CLOUDY    61  50  67 NE6       29.90F
BEACH          CLOUDY    59  59 100 CALM      29.94S
CROSBY         FAIR      73  37  27 SE12      29.91F
WATFORD CITY   FAIR      68  46  45 E12       29.90S
BISMARCK       CLOUDY    64  51  62 E6        29.90S
GRAND FORKS    CLOUDY    71  48  43 S8        29.89F
FARGO          CLOUDY    68  54  60 SE3       29.88F
BUFFALO SD       N/A     55  52  89 E8        29.85F
RAPID CITY     RAIN      55  53  93 NE10      29.85F FOG
$$

REGIONAL REPORTS...WYOMING/IDAHO/WASHINGTON

CITY           SKY/WX    TMP DP  RH WIND       PRES   REMARKS
GILLETTE       CLOUDY    51  48  89 NE12      29.90S
SHERIDAN       LGT RAIN  51  49  92 N9        29.94S
BUFFALO WY     LGT RAIN  47  45  93 N7        29.94R FOG
CODY           CLOUDY    50  43  76 NW8       29.98F
YELLOWSTONE LA   N/A     46  36  68 CALM      30.02F
IDAHO FALLS    PTSUNNY   59  46  62 NW6       29.86F
SALMON         PTSUNNY   63  41  45 N9        29.89R
BOISE          FAIR      77  41  27 W15       29.79F
SPOKANE        CLOUDY    75  43  31 SW12      29.84F
$$

REGIONAL REPORTS...ALBERTA

CITY           SKY/WX    TMP DP  RH WIND       PRES   REMARKS
EDMONTON       SUNNY     79  34  19 S12       29.88F
CALGARY        CLOUDY    70  34  26 S16G26    29.92F
LETHBRIDGE     MOSUNNY   68  37  32 S17       29.95F
MEDICINE HAT   MOSUNNY   73  36  25 CALM      29.93F
$$

REGIONAL REPORTS...SASKATCHEWAN

CITY           SKY/WX    TMP DP  RH WIND       PRES   REMARKS
SWIFT CURRENT  PTSUNNY   73  28  19 NE3       29.95F
REGINA         MOSUNNY   75  36  23 CALM      29.92F
SASKATOON      PTSUNNY   79  36  21 W10       29.92F
$$



USA.gov is the U.S. government's official web portal to all federal, state and local government web resources and services.